Regional Weather Roundup
Issued by NWS

Home | Current Version | Previous Version | Text Only | Print | Product List | Glossary Off
Versions: 1 2 3 4 5 6 7 8 9 10 11 12 13 14 15 16 17 18 19 20 21 22 23 24 25 26 27 28 29 30 31 32 33 34 35 36 37 38 39 40 41 42 43 44 45 46 47 48 49 50

000
ASUS43 KDTX 311610
RWRMI
MICHIGAN HOURLY REGIONAL WEATHER ROUNDUP
NATIONAL WEATHER SERVICE DETROIT/PONTIAC MI
1100 AM EST SAT JAN 31 2015

NOTE: "FAIR" INDICATES FEW OR NO CLOUDS BELOW 12,000 FEET WITH NO
SIGNIFICANT WEATHER AND/OR OBSTRUCTION TO VISIBILITY.

MIZ047>049-052>055-059>063-066>070-074>076-081>083-311700-
SOUTHEAST LOWER MICHIGAN

CITY           SKY/WX    TMP DP  RH WIND       PRES   REMARKS
ADRIAN         SUNNY     26  18  71 W10       30.27F
ALMA           SUNNY     26  20  80 S8        30.20F
ANN ARBOR      SUNNY     26  18  71 W9        30.25F
BAD AXE        CLOUDY    21  16  79 S7        30.21S
DETROIT CITY   MOSUNNY   26  16  65 SW7       30.26F
DETROIT        MOSUNNY   27  18  69 S12       30.28F
FLINT          MOSUNNY   27  17  66 SW10      30.22F
GROSSE ILE     SUNNY     27  18  69 S7        30.27S
HILLSDALE      SUNNY     27  19  70 SW9       30.23S
HOWELL         MOSUNNY   26  18  73 SW8       30.22S

CITY           SKY/WX    TMP DP  RH WIND       PRES   REMARKS
JACKSON        SUNNY     27  18  69 W12       30.22F
LAMBERTVILLE   SUNNY     30  19  64 SW6       30.28F
LANSING        MOSUNNY   27  19  72 SW10      30.22F
LAPEER         NOT AVBL
MASON          MOSUNNY   27  18  69 SW8       30.22F
MONROE         SUNNY     28  19  69 SW12      30.26F
MT. CLEMENS    PTSUNNY   24  15  70 SW6       30.23F
PONTIAC        MOSUNNY   23  15  71 SW6       30.22F
PORT HOPE        N/A     21  13  71 SW7       30.19F
PORT HURON     CLOUDY    23  16  74 S13       30.26S
TRI CITIES     MOSUNNY   27  19  72 SW12      30.20F
YPSILANTI      SUNNY     28  18  66 SW12      30.27F
$$
MIZ043>046-050>051-056>058-064>065-071>073-077>080-311700-
SOUTHWEST LOWER MICHIGAN

CITY           SKY/WX    TMP DP  RH WIND       PRES   REMARKS
BATTLE CREEK   SUNNY     27  18  69 SW9       30.23S
BENTON HARBOR  CLOUDY    29  23  78 SW14      30.24S
BIG RAPIDS     CLOUDY    27  22  84 SW7       30.14F
COLDWATER      SUNNY     28  20  70 SW14G20   30.24S
HOLLAND        CLOUDY    29  23  78 S13       30.21S
GRAND RAPIDS   CLOUDY    26  20  77 SW12      30.20F
KALAMAZOO      PTSUNNY   28  19  69 SW10      30.23F
MARSHALL       SUNNY     26  18  71 SW9       30.23S
MUSKEGON       CLOUDY    34  24  67 SW13      30.18F
$$
MIZ016>042-311700-
NORTHERN LOWER MICHIGAN

CITY           SKY/WX    TMP DP  RH WIND       PRES   REMARKS
ALPENA         CLOUDY    18  13  80 SW6       30.15F
BEAVER ISLAND  CLOUDY    24  17  73 W3        30.13R
BELLAIRE       CLOUDY    25  18  74 SW5       30.14S
CADILLAC       CLOUDY    22  18  83 SW7       30.11R
CHARLEVOIX     CLOUDY    26  20  80 W10       30.15S
FRANKFORT      CLOUDY    28  22  77 NW9       30.15S
GAYLORD        CLOUDY    19  15  84 SW10      30.08F
GRAYLING       CLOUDY    21  16  80 SW5       30.11F
HARBOR SPRINGS CLOUDY    23  18  80 SW8       30.11S
HOUGHTON LAKE  CLOUDY    19  14  81 SW7       30.13F
MANISTEE       CLOUDY    23  16  74 E3        30.16S
OSCODA         CLOUDY    20  15  81 SW10      30.17F
PELLSTON       CLOUDY    23  16  74 SW7       30.12R
TRAVERSE CITY  CLOUDY    25  17  72 SW5       30.13F
$$
MIZ007>008-015-311700-
EASTERN UPPER MICHIGAN

CITY           SKY/WX    TMP DP  RH WIND       PRES   REMARKS
KINROSS        CLOUDY    19  18  93 SW6       30.10S
MACKINAC ISLAN CLOUDY    21  17  84 SW6       30.10S
NEWBERRY       FLURRIES  19  14  82 W6        30.09R
S. S. MARIE    LGT SNOW  15  11  83 CALM      30.10S FOG
$$
MIZ004>006-011>014-085-311700-
CENTRAL UPPER MICHIGAN

CITY           SKY/WX    TMP DP  RH WIND       PRES   REMARKS
MANISTIQUE     CLOUDY    22  15  76 W8        30.12R
ESCANABA       CLOUDY    23  12  63 W7        30.15R
MENOMINEE      CLOUDY    23  12  63 NW5       30.15S
SAWYER-GWINN   CLOUDY    19  16  86 NW5       30.09S
$$
MIZ001>003-009>011-084-311700-
WESTERN UPPER MICHIGAN

CITY           SKY/WX    TMP DP  RH WIND       PRES   REMARKS
IRON MOUNTAIN  CLOUDY    23  16  74 NW8       30.11R
HOUGHTON       LGT SNOW  18  11  74 NW14      30.13R
COPPER HARBOR    N/A     20  14  77 NE21G28   30.15R
IRONWOOD       CLOUDY    21  18  86 N12G18    30.14R
$$

ABBREVIATIONS USED IN REMARKS
   TC - TEMPERATURE IN CELSIUS
  WCI - WIND CHILL INDEX
   HX - HEAT INDEX
  VSB - VISIBILITY



USA.gov is the U.S. government's official web portal to all federal, state and local government web resources and services.